M I D A S
Marine Information and Data Acquisition System
Tripno 1297 of the Zeeleeuw from 2007-07-03 06:32:08 to 2007-07-03 15:22:59
Back to CruiseResearch ActivitiesStationsMapUnderway DataData graphs

EquipmentUnitsComments
TimeDGPSUTC
LatitudeDGPSDM.mWGS84
LongitudeDGPSDM.mWGS84
SpeedMeteo Stationm/sRelative wind speed
DirectionMeteo StationdegRelative wind direction
TemperatureMeteo Stationdeg CelciusAir temperature
PressureMeteo StationPaAtmospheric pressure
HumidityMeteo Station%Relative humidity
Missing or incorrect values are displayed as -999
Metereological data collected by the RV Zeeleeuw from 2007-07-03 06:30:31 to 2007-07-03 15:33:31
                                                                                    Next 1000 lines
Time Latitude Longitude Speed Direction Temperature Pressure Humidity
2007-07-03 06:30:41 51°13.597 2°56.092 4.3 358 13.1 100230 100
2007-07-03 06:30:46 51°13.598 2°56.089 4.7 357 13.1 100230 100
2007-07-03 06:30:51 51°13.599 2°56.086 4.1 5 13.1 100220 100
2007-07-03 06:30:56 51°13.6 2°56.082 3.7 8 13.1 100220 100
2007-07-03 06:31:01 51°13.602 2°56.077 3.4 3 13.1 100230 100
2007-07-03 06:31:07 51°13.603 2°56.07 4.4 9 13.1 100230 100
2007-07-03 06:31:13 51°13.606 2°56.063 3.5 35 13.1 100230 100
2007-07-03 06:31:18 51°13.608 2°56.057 3.7 36 13.1 100230 100
2007-07-03 06:31:24 51°13.61 2°56.048 3.4 34 13.1 100230 100
2007-07-03 06:31:29 51°13.613 2°56.041 2.4 25 13.1 100230 100
2007-07-03 06:31:34 51°13.615 2°56.032 2.9 30 13.1 100240 100
2007-07-03 06:31:40 51°13.618 2°56.022 1.1 26 13.1 100240 100
2007-07-03 06:31:45 51°13.621 2°56.013 1.2 34 13.1 100230 100
2007-07-03 06:31:49 51°13.624 2°56.005 1 241 13.1 100230 100
2007-07-03 06:31:54 51°13.627 2°55.996 1.2 27 13.2 100230 100
2007-07-03 06:31:59 51°13.631 2°55.986 4.1 33 13.2 100230 100
2007-07-03 06:32:05 51°13.635 2°55.974 4.1 31 13.1 100230 100
2007-07-03 06:32:09 51°13.639 2°55.965 3.7 29 13.1 100230 100
2007-07-03 06:32:14 51°13.643 2°55.955 3.6 15 13.1 100230 100
2007-07-03 06:32:19 51°13.647 2°55.945 4.8 25 13.1 100230 100
2007-07-03 06:32:25 51°13.652 2°55.933 4.6 22 13.2 100230 100
2007-07-03 06:32:29 51°13.655 2°55.926 4.7 12 13.2 100230 100
2007-07-03 06:32:34 51°13.658 2°55.917 4.5 18 13.1 100230 100
2007-07-03 06:32:39 51°13.662 2°55.908 4.7 25 13.1 100230 100
2007-07-03 06:32:44 51°13.665 2°55.9 4.4 29 13.1 100230 100
2007-07-03 06:32:49 51°13.668 2°55.892 1.5 33 13.1 100230 100
2007-07-03 06:32:54 51°13.671 2°55.885 1.8 25 13.1 100230 100
2007-07-03 06:32:59 51°13.674 2°55.877 2.7 35 13.1 100230 100
2007-07-03 06:33:04 51°13.676 2°55.87 3.1 32 13.1 100230 100
2007-07-03 06:33:09 51°13.678 2°55.862 6.5 33 13.1 100230 100
2007-07-03 06:33:13 51°13.679 2°55.857 7.7 18 13.1 100230 100
2007-07-03 06:33:18 51°13.681 2°55.85 6.3 19 13.1 100230 100
2007-07-03 06:33:23 51°13.682 2°55.844 6.1 26 13.1 100230 100
2007-07-03 06:33:28 51°13.683 2°55.837 4.1 37 13.1 100230 100
2007-07-03 06:33:33 51°13.685 2°55.831 3.6 27 13.1 100240 100
2007-07-03 06:33:38 51°13.686 2°55.825 4 31 13.1 100240 100
2007-07-03 06:33:42 51°13.686 2°55.82 3.8 30 13.1 100230 100
2007-07-03 06:33:47 51°13.687 2°55.815 3.7 41 13.1 100230 100
2007-07-03 06:33:52 51°13.687 2°55.809 4.2 31 13.1 100230 100
2007-07-03 06:33:57 51°13.688 2°55.804 6.7 42 13.1 100230 100
2007-07-03 06:34:02 51°13.688 2°55.799 6 34 13.1 100230 100
2007-07-03 06:34:06 51°13.688 2°55.794 5.2 39 13.1 100230 100
2007-07-03 06:34:11 51°13.688 2°55.79 4.9 35 13.1 100230 100
2007-07-03 06:34:16 51°13.688 2°55.785 6.9 36 13.1 100230 100
2007-07-03 06:34:21 51°13.688 2°55.781 8.3 20 13.1 100230 100
2007-07-03 06:34:26 51°13.688 2°55.776 6.7 37 13.1 100230 100
2007-07-03 06:34:31 51°13.688 2°55.772 6.2 32 13.1 100240 100
2007-07-03 06:34:36 51°13.687 2°55.768 6.3 39 13.1 100240 100
2007-07-03 06:34:41 51°13.687 2°55.764 6.9 28 13.1 100230 100
2007-07-03 06:34:46 51°13.687 2°55.76 4.1 38 13.1 100230 100
2007-07-03 06:34:51 51°13.687 2°55.756 4.4 33 13.1 100230 100
2007-07-03 06:34:56 51°13.686 2°55.753 6.1 44 13.1 100230 100
2007-07-03 06:35:01 51°13.686 2°55.749 4.7 24 13.1 100230 100
2007-07-03 06:35:06 51°13.686 2°55.746 5.2 42 13.1 100230 100
2007-07-03 06:35:11 51°13.685 2°55.743 5.3 42 13.1 100230 100
2007-07-03 06:35:16 51°13.685 2°55.74 5.1 34 13.1 100230 100
2007-07-03 06:35:21 51°13.684 2°55.737 5.1 43 13.1 100230 100
2007-07-03 06:35:26 51°13.684 2°55.735 3.8 30 13.1 100230 100
2007-07-03 06:35:31 51°13.684 2°55.732 3.5 26 13.1 100230 100
2007-07-03 06:35:36 51°13.684 2°55.73 1.8 22 13.1 100230 100
2007-07-03 06:35:41 51°13.684 2°55.729 1.8 30 13.1 100230 100
2007-07-03 06:35:46 51°13.684 2°55.729 2.7 35 13.1 100230 100
2007-07-03 06:35:51 51°13.686 2°55.729 2.6 24 13.1 100230 100
2007-07-03 06:35:56 51°13.687 2°55.73 3.4 39 13.1 100230 100
2007-07-03 06:36:01 51°13.689 2°55.731 3.4 26 13.1 100230 100
2007-07-03 06:36:06 51°13.692 2°55.732 2.3 33 13.1 100230 100
2007-07-03 06:36:10 51°13.695 2°55.733 1.3 34 13.1 100230 100
2007-07-03 06:36:16 51°13.7 2°55.734 2.1 39 13.1 100230 100
2007-07-03 06:36:21 51°13.705 2°55.733 2.4 269 13.1 100230 100
2007-07-03 06:36:26 51°13.71 2°55.731 3.7 254 13.1 100230 100
2007-07-03 06:36:31 51°13.716 2°55.727 3.1 263 13.1 100230 100
2007-07-03 06:36:36 51°13.722 2°55.722 3.5 309 13.1 100230 100
2007-07-03 06:36:41 51°13.729 2°55.717 2.8 270 13.2 100240 100
2007-07-03 06:36:46 51°13.736 2°55.711 2.3 255 13.2 100240 100
2007-07-03 06:36:51 51°13.743 2°55.705 6.3 30 13.2 100230 100
2007-07-03 06:36:56 51°13.751 2°55.698 5 53 13.2 100230 100
2007-07-03 06:37:01 51°13.759 2°55.692 3.7 256 13.2 100240 100
2007-07-03 06:37:06 51°13.767 2°55.685 2.3 262 13.2 100240 100
2007-07-03 06:37:11 51°13.776 2°55.677 3.3 264 13.2 100240 100
2007-07-03 06:37:16 51°13.785 2°55.671 1.7 303 13.2 100240 100
2007-07-03 06:37:21 51°13.794 2°55.663 2.1 22 13.2 100230 100
2007-07-03 06:37:26 51°13.803 2°55.656 1.7 38 13.2 100230 100
2007-07-03 06:37:31 51°13.812 2°55.649 1.6 30 13.2 100230 100
2007-07-03 06:37:36 51°13.822 2°55.642 1.4 38 13.2 100230 100
2007-07-03 06:37:41 51°13.832 2°55.635 1.2 25 13.2 100230 100
2007-07-03 06:37:46 51°13.841 2°55.628 1.2 313 13.2 100230 100
2007-07-03 06:37:51 51°13.851 2°55.621 2.2 19 13.2 100230 100
2007-07-03 06:37:56 51°13.861 2°55.614 3 36 13.2 100230 100
2007-07-03 06:38:01 51°13.872 2°55.607 2.5 319 13.2 100230 100
2007-07-03 06:38:06 51°13.882 2°55.6 4.2 301 13.2 100230 100
2007-07-03 06:38:10 51°13.89 2°55.594 3.4 27 13.2 100230 100
2007-07-03 06:38:16 51°13.902 2°55.585 2.4 244 13.2 100230 100
2007-07-03 06:38:21 51°13.913 2°55.577 2.6 27 13.1 100230 100
2007-07-03 06:38:26 51°13.923 2°55.57 2.4 322 13.1 100230 100
2007-07-03 06:38:31 51°13.934 2°55.562 2.7 25 13.2 100230 100
2007-07-03 06:38:36 51°13.944 2°55.555 2.3 308 13.2 100230 100
2007-07-03 06:38:41 51°13.955 2°55.547 2.9 23 13.2 100230 100
2007-07-03 06:38:46 51°13.966 2°55.539 3.3 317 13.2 100230 100
2007-07-03 06:38:51 51°13.976 2°55.532 3 320 13.2 100220 100
2007-07-03 06:38:56 51°13.987 2°55.524 5.4 318 13.2 100220 100
2007-07-03 06:39:01 51°13.998 2°55.516 5.3 28 13.2 100230 100
2007-07-03 06:39:06 51°14.009 2°55.508 4 235 13.2 100230 100
2007-07-03 06:39:11 51°14.02 2°55.499 3.7 26 13.2 100230 100
2007-07-03 06:39:16 51°14.032 2°55.491 4.3 305 13.2 100230 100
2007-07-03 06:39:21 51°14.043 2°55.482 4.1 27 13.2 100230 100
2007-07-03 06:39:26 51°14.055 2°55.474 4.9 235 13.2 100230 100
2007-07-03 06:39:31 51°14.067 2°55.465 4.7 25 13.2 100220 100
2007-07-03 06:39:36 51°14.078 2°55.456 2.6 316 13.2 100220 100
2007-07-03 06:39:41 51°14.09 2°55.447 3.2 21 13.2 100230 100
2007-07-03 06:39:46 51°14.102 2°55.437 3.5 316 13.2 100230 100
2007-07-03 06:39:51 51°14.114 2°55.428 2.9 22 13.2 100230 100
2007-07-03 06:39:56 51°14.126 2°55.418 3.7 246 13.2 100230 100
2007-07-03 06:40:01 51°14.138 2°55.408 3.4 24 13.2 100230 100
2007-07-03 06:40:06 51°14.151 2°55.397 5 236 13.2 100230 100
2007-07-03 06:40:11 51°14.163 2°55.386 4.3 27 13.2 100230 100
2007-07-03 06:40:16 51°14.175 2°55.374 4 33 13.2 100230 100
2007-07-03 06:40:21 51°14.187 2°55.362 4.5 27 13.2 100230 100
2007-07-03 06:40:26 51°14.199 2°55.348 4.8 240 13.2 100230 100
2007-07-03 06:40:31 51°14.211 2°55.334 4.1 257 13.2 100230 100
2007-07-03 06:40:36 51°14.223 2°55.32 4 321 13.2 100230 100
2007-07-03 06:40:41 51°14.235 2°55.303 5.9 27 13.2 100230 100
2007-07-03 06:40:46 51°14.246 2°55.287 4.7 319 13.2 100230 100
2007-07-03 06:40:51 51°14.257 2°55.269 5.7 318 13.2 100230 100
2007-07-03 06:40:56 51°14.268 2°55.251 5.5 307 13.2 100230 100
2007-07-03 06:41:01 51°14.279 2°55.233 6 26 13.2 100220 100
2007-07-03 06:41:06 51°14.289 2°55.214 8.1 36 13.2 100220 100
2007-07-03 06:41:11 51°14.3 2°55.196 10.1 24 13.2 100230 100
2007-07-03 06:41:16 51°14.311 2°55.177 6.3 304 13.2 100230 100
2007-07-03 06:41:21 51°14.321 2°55.156 9.2 26 13.2 100220 100
2007-07-03 06:41:26 51°14.331 2°55.136 6.8 237 13.2 100220 100
2007-07-03 06:41:31 51°14.34 2°55.115 5.5 25 13.2 100220 100
2007-07-03 06:41:36 51°14.35 2°55.094 6.8 319 13.2 100220 100
2007-07-03 06:41:41 51°14.36 2°55.072 6.3 26 13.2 100210 100
2007-07-03 06:41:46 51°14.369 2°55.051 9.7 36 13.2 100210 100
2007-07-03 06:41:51 51°14.378 2°55.028 10.1 28 13.2 100210 100
2007-07-03 06:41:56 51°14.386 2°55.003 10 233 13.2 100210 100
2007-07-03 06:42:01 51°14.392 2°54.978 12.1 23 13.2 100210 100
2007-07-03 06:42:06 51°14.398 2°54.951 12.4 233 13.2 100210 100
2007-07-03 06:42:11 51°14.403 2°54.924 12.4 26 13.2 100220 100
2007-07-03 06:42:16 51°14.407 2°54.896 10.9 238 13.2 100220 100
2007-07-03 06:42:21 51°14.411 2°54.868 12.3 27 13.2 100210 100
2007-07-03 06:42:26 51°14.415 2°54.839 9.8 237 13.2 100210 100
2007-07-03 06:42:31 51°14.418 2°54.81 12.2 25 13.2 100190 100
2007-07-03 06:42:36 51°14.421 2°54.781 11.2 36 13.2 100190 100
2007-07-03 06:42:41 51°14.423 2°54.752 12.9 22 13.2 100190 100
2007-07-03 06:42:46 51°14.424 2°54.722 11.4 34 13.2 100190 100
2007-07-03 06:42:51 51°14.425 2°54.692 12.6 24 13.2 100190 100
2007-07-03 06:42:56 51°14.426 2°54.663 12.9 37 13.2 100190 100
2007-07-03 06:43:01 51°14.425 2°54.633 12.6 26 13.2 100190 100
2007-07-03 06:43:06 51°14.424 2°54.603 13.3 36 13.2 100190 100
2007-07-03 06:43:11 51°14.421 2°54.574 14.9 24 13.2 100180 100
2007-07-03 06:43:16 51°14.418 2°54.544 15.1 35 13.2 100180 100
2007-07-03 06:43:21 51°14.415 2°54.515 13.4 24 13.3 100180 100
2007-07-03 06:43:26 51°14.41 2°54.486 13.5 305 13.3 100180 100
2007-07-03 06:43:30 51°14.405 2°54.464 13.8 316 13.3 100190 100
2007-07-03 06:43:36 51°14.397 2°54.431 13.9 319 13.3 100190 100
2007-07-03 06:43:41 51°14.389 2°54.405 13.1 317 13.2 100180 100
2007-07-03 06:43:46 51°14.382 2°54.378 14.5 320 13.2 100180 100
2007-07-03 06:43:51 51°14.373 2°54.352 14.1 318 13.2 100170 100
2007-07-03 06:43:56 51°14.364 2°54.326 14.8 305 13.2 100170 100
2007-07-03 06:44:01 51°14.355 2°54.3 15.8 319 13.3 100190 100
2007-07-03 06:44:06 51°14.346 2°54.275 14.9 320 13.3 100190 100
2007-07-03 06:44:11 51°14.337 2°54.249 14.5 317 13.3 100190 100
2007-07-03 06:44:16 51°14.327 2°54.224 14.9 301 13.3 100190 100
2007-07-03 06:44:21 51°14.318 2°54.198 16.2 316 13.3 100180 100
2007-07-03 06:44:26 51°14.308 2°54.173 14.3 304 13.3 100180 100
2007-07-03 06:44:31 51°14.299 2°54.147 13.6 316 13.3 100180 100
2007-07-03 06:44:36 51°14.29 2°54.121 15.5 317 13.3 100180 100
2007-07-03 06:44:41 51°14.281 2°54.095 14.3 317 13.3 100180 100
2007-07-03 06:44:46 51°14.271 2°54.069 13.7 316 13.3 100180 100
2007-07-03 06:44:51 51°14.262 2°54.043 14.8 318 13.3 100180 100
2007-07-03 06:44:56 51°14.252 2°54.018 13.7 321 13.3 100180 100
2007-07-03 06:45:01 51°14.243 2°53.991 15.4 321 13.3 100180 100
2007-07-03 06:45:06 51°14.234 2°53.965 14.2 320 13.3 100180 100
2007-07-03 06:45:11 51°14.225 2°53.939 14.8 321 13.3 100180 100
2007-07-03 06:45:16 51°14.215 2°53.913 15.4 315 13.3 100180 100
2007-07-03 06:45:21 51°14.206 2°53.887 14 28 13.4 100180 100
2007-07-03 06:45:26 51°14.197 2°53.861 14.6 316 13.4 100180 100
2007-07-03 06:45:31 51°14.188 2°53.834 14.4 319 13.4 100180 100
2007-07-03 06:45:36 51°14.178 2°53.808 12.4 304 13.4 100180 100
2007-07-03 06:45:41 51°14.169 2°53.781 14.1 320 13.3 100180 100
2007-07-03 06:45:46 51°14.159 2°53.756 13.6 318 13.3 100180 100
2007-07-03 06:45:51 51°14.149 2°53.73 13.4 319 13.4 100180 100
2007-07-03 06:45:56 51°14.139 2°53.704 15.2 319 13.4 100180 100
2007-07-03 06:46:01 51°14.13 2°53.678 13.7 317 13.4 100190 100
2007-07-03 06:46:06 51°14.12 2°53.652 15.1 316 13.4 100190 100
2007-07-03 06:46:11 51°14.111 2°53.626 14.2 316 13.4 100190 100
2007-07-03 06:46:16 51°14.102 2°53.599 15.6 317 13.4 100190 100
2007-07-03 06:46:21 51°14.092 2°53.573 14.4 26 13.4 100190 100
2007-07-03 06:46:26 51°14.083 2°53.547 14.4 316 13.4 100190 100
2007-07-03 06:46:31 51°14.074 2°53.52 13.2 317 13.4 100180 100
2007-07-03 06:46:36 51°14.065 2°53.493 14.3 319 13.4 100180 100
2007-07-03 06:46:41 51°14.056 2°53.467 14.5 317 13.4 100180 100
2007-07-03 06:46:46 51°14.047 2°53.44 15.2 319 13.4 100180 100
2007-07-03 06:46:51 51°14.038 2°53.414 13 317 13.4 100180 100
2007-07-03 06:46:56 51°14.029 2°53.387 15.1 320 13.4 100180 100
2007-07-03 06:47:01 51°14.02 2°53.361 13.5 320 13.4 100180 100
2007-07-03 06:47:06 51°14.01 2°53.334 13.6 319 13.4 100180 100
2007-07-03 06:47:11 51°14.001 2°53.308 13.5 321 13.4 100180 100
2007-07-03 06:47:16 51°13.991 2°53.282 16.4 319 13.4 100180 100
2007-07-03 06:47:21 51°13.981 2°53.256 16.2 319 13.4 100180 100
2007-07-03 06:47:26 51°13.972 2°53.23 14.3 321 13.4 100180 100
2007-07-03 06:47:30 51°13.964 2°53.21 15.6 322 13.4 100180 100
2007-07-03 06:47:36 51°13.953 2°53.178 15.6 320 13.4 100180 100
2007-07-03 06:47:41 51°13.943 2°53.152 14.5 320 13.5 100190 100
2007-07-03 06:47:46 51°13.935 2°53.125 13.4 317 13.5 100190 100
2007-07-03 06:47:51 51°13.925 2°53.099 15 321 13.4 100180 100
2007-07-03 06:47:56 51°13.916 2°53.072 14 302 13.4 100180 100
2007-07-03 06:48:01 51°13.907 2°53.046 15 318 13.4 100180 100
2007-07-03 06:48:06 51°13.898 2°53.019 14 318 13.4 100180 100
2007-07-03 06:48:11 51°13.889 2°52.993 13.5 320 13.4 100180 100
2007-07-03 06:48:16 51°13.88 2°52.966 16.6 319 13.4 100180 100
2007-07-03 06:48:21 51°13.871 2°52.94 15.8 319 13.4 100180 100
2007-07-03 06:48:26 51°13.862 2°52.914 14.6 317 13.4 100180 100
2007-07-03 06:48:31 51°13.852 2°52.887 16.2 315 13.4 100180 100
2007-07-03 06:48:36 51°13.843 2°52.861 14.3 318 13.4 100180 100
2007-07-03 06:48:41 51°13.834 2°52.835 13 321 13.5 100190 100
2007-07-03 06:48:46 51°13.824 2°52.809 15.1 319 13.5 100190 100
2007-07-03 06:48:51 51°13.815 2°52.783 14.7 320 13.4 100180 100
2007-07-03 06:48:56 51°13.805 2°52.757 14.2 317 13.4 100180 100
2007-07-03 06:49:01 51°13.795 2°52.731 14.5 321 13.4 100180 100
2007-07-03 06:49:06 51°13.785 2°52.706 13.9 319 13.4 100180 100
2007-07-03 06:49:11 51°13.776 2°52.679 15.3 322 13.4 100180 100
2007-07-03 06:49:16 51°13.767 2°52.653 14.5 316 13.4 100180 100
2007-07-03 06:49:21 51°13.757 2°52.627 16.9 317 13.4 100190 100
2007-07-03 06:49:26 51°13.748 2°52.601 13.9 318 13.4 100190 100
2007-07-03 06:49:30 51°13.741 2°52.58 14.4 320 13.4 100180 100
2007-07-03 06:49:36 51°13.73 2°52.548 14.8 318 13.4 100180 100
2007-07-03 06:49:41 51°13.72 2°52.523 15.5 317 13.5 100180 100
2007-07-03 06:49:46 51°13.711 2°52.497 12.9 321 13.5 100180 100
2007-07-03 06:49:50 51°13.703 2°52.476 15.5 320 13.4 100170 100
2007-07-03 06:49:56 51°13.692 2°52.444 14.6 321 13.4 100170 100
2007-07-03 06:50:01 51°13.682 2°52.419 15.5 320 13.4 100170 100
2007-07-03 06:50:06 51°13.673 2°52.392 12.9 317 13.4 100170 100
2007-07-03 06:50:11 51°13.664 2°52.366 14.3 318 13.4 100180 100
2007-07-03 06:50:16 51°13.654 2°52.34 14.9 320 13.4 100180 100
2007-07-03 06:50:21 51°13.645 2°52.314 15.4 320 13.4 100190 100
2007-07-03 06:50:26 51°13.636 2°52.288 14.5 319 13.4 100190 100
2007-07-03 06:50:31 51°13.626 2°52.262 13.5 318 13.4 100190 100
2007-07-03 06:50:36 51°13.617 2°52.236 14.3 306 13.4 100190 100
2007-07-03 06:50:41 51°13.608 2°52.209 13.3 319 13.4 100180 100
2007-07-03 06:50:46 51°13.598 2°52.183 15.1 319 13.4 100180 100
2007-07-03 06:50:51 51°13.59 2°52.157 15.3 318 13.5 100180 100
2007-07-03 06:50:56 51°13.58 2°52.131 15.1 286 13.5 100180 100
2007-07-03 06:51:01 51°13.571 2°52.104 16.5 321 13.5 100190 100
2007-07-03 06:51:06 51°13.562 2°52.078 15.2 319 13.5 100190 100
2007-07-03 06:51:11 51°13.553 2°52.052 13 318 13.5 100190 100
2007-07-03 06:51:16 51°13.543 2°52.026 16.2 321 13.5 100190 100
2007-07-03 06:51:21 51°13.534 2°52 15.9 321 13.4 100180 100
2007-07-03 06:51:26 51°13.524 2°51.974 15.7 321 13.4 100180 100
2007-07-03 06:51:31 51°13.515 2°51.948 16 320 13.4 100180 100
2007-07-03 06:51:36 51°13.506 2°51.922 17.4 316 13.4 100180 100
2007-07-03 06:51:41 51°13.496 2°51.896 14.6 23 13.4 100190 100
2007-07-03 06:51:46 51°13.487 2°51.869 15.1 37 13.4 100190 100
2007-07-03 06:51:51 51°13.478 2°51.843 17.5 23 13.4 100180 100
2007-07-03 06:51:56 51°13.469 2°51.817 13.1 318 13.4 100180 100
2007-07-03 06:52:01 51°13.459 2°51.791 13.7 27 13.4 100180 100
2007-07-03 06:52:06 51°13.45 2°51.765 14.9 318 13.4 100180 100
2007-07-03 06:52:11 51°13.441 2°51.738 14.5 318 13.4 100170 100
2007-07-03 06:52:16 51°13.431 2°51.712 16.6 317 13.4 100170 100
2007-07-03 06:52:21 51°13.422 2°51.686 16.5 23 13.4 100170 100
2007-07-03 06:52:26 51°13.413 2°51.66 15.6 319 13.4 100170 100
2007-07-03 06:52:31 51°13.404 2°51.633 15.9 27 13.4 100180 100
2007-07-03 06:52:36 51°13.394 2°51.607 13.6 319 13.4 100180 100
2007-07-03 06:52:41 51°13.385 2°51.581 13.8 23 13.4 100170 100
2007-07-03 06:52:46 51°13.375 2°51.555 14.5 316 13.4 100170 100
2007-07-03 06:52:51 51°13.366 2°51.529 17.2 315 13.4 100160 100
2007-07-03 06:52:56 51°13.357 2°51.503 16.1 316 13.4 100160 100
2007-07-03 06:53:01 51°13.348 2°51.477 14.3 315 13.4 100180 100
2007-07-03 06:53:06 51°13.339 2°51.45 15.2 319 13.4 100180 100
2007-07-03 06:53:11 51°13.329 2°51.424 14.5 317 13.4 100180 100
2007-07-03 06:53:16 51°13.32 2°51.398 14.2 321 13.4 100180 100
2007-07-03 06:53:21 51°13.31 2°51.372 14.3 319 13.4 100180 100
2007-07-03 06:53:26 51°13.301 2°51.347 15.8 317 13.4 100180 100
2007-07-03 06:53:31 51°13.291 2°51.321 15.3 316 13.4 100170 100
2007-07-03 06:53:36 51°13.281 2°51.296 16 320 13.4 100170 100
2007-07-03 06:53:41 51°13.271 2°51.271 15.9 319 13.4 100170 100
2007-07-03 06:53:46 51°13.261 2°51.245 13.8 303 13.4 100170 100
2007-07-03 06:53:51 51°13.251 2°51.22 13.6 321 13.4 100190 100
2007-07-03 06:53:56 51°13.241 2°51.194 15.8 319 13.4 100190 100
2007-07-03 06:54:01 51°13.23 2°51.17 15.4 321 13.4 100180 100
2007-07-03 06:54:06 51°13.22 2°51.144 15.9 321 13.4 100180 100
2007-07-03 06:54:11 51°13.21 2°51.119 15.1 320 13.4 100190 100
2007-07-03 06:54:16 51°13.2 2°51.094 13.9 319 13.4 100190 100
2007-07-03 06:54:21 51°13.19 2°51.069 14.9 320 13.4 100180 100
2007-07-03 06:54:26 51°13.18 2°51.044 14.1 321 13.4 100180 100
2007-07-03 06:54:31 51°13.17 2°51.018 13.5 320 13.4 100180 100
2007-07-03 06:54:36 51°13.161 2°50.993 15.8 321 13.4 100180 100
2007-07-03 06:54:41 51°13.151 2°50.967 15.6 323 13.4 100190 100
2007-07-03 06:54:46 51°13.141 2°50.942 14.9 322 13.4 100190 100
2007-07-03 06:54:51 51°13.131 2°50.917 14.1 320 13.4 100180 100
2007-07-03 06:54:56 51°13.121 2°50.891 14.7 320 13.4 100180 100
2007-07-03 06:55:01 51°13.111 2°50.866 14.6 320 13.4 100190 100
2007-07-03 06:55:06 51°13.101 2°50.84 14.8 320 13.4 100190 100
2007-07-03 06:55:11 51°13.091 2°50.815 14.7 319 13.4 100180 100
2007-07-03 06:55:16 51°13.082 2°50.789 13.8 318 13.4 100180 100
2007-07-03 06:55:21 51°13.072 2°50.764 14.8 317 13.4 100180 100
2007-07-03 06:55:26 51°13.062 2°50.738 12.5 322 13.4 100180 100
2007-07-03 06:55:31 51°13.052 2°50.713 13.6 320 13.4 100190 100
2007-07-03 06:55:36 51°13.042 2°50.688 13 321 13.4 100190 100
2007-07-03 06:55:41 51°13.032 2°50.663 15.2 319 13.4 100190 100
2007-07-03 06:55:46 51°13.021 2°50.638 11.9 321 13.4 100190 100
2007-07-03 06:55:51 51°13.011 2°50.613 12.8 322 13.4 100180 100
2007-07-03 06:55:56 51°13.001 2°50.588 14.1 319 13.4 100180 100
2007-07-03 06:56:01 51°12.991 2°50.562 14.2 322 13.4 100190 100
2007-07-03 06:56:06 51°12.981 2°50.537 15.4 320 13.4 100190 100
2007-07-03 06:56:11 51°12.971 2°50.512 14.6 320 13.5 100180 100
2007-07-03 06:56:16 51°12.962 2°50.486 12.8 319 13.5 100180 100
2007-07-03 06:56:21 51°12.952 2°50.46 13.3 319 13.5 100180 100
2007-07-03 06:56:26 51°12.942 2°50.434 13.6 319 13.5 100180 100
2007-07-03 06:56:31 51°12.932 2°50.409 13.5 319 13.4 100190 100
2007-07-03 06:56:36 51°12.922 2°50.384 13.2 321 13.4 100190 100
2007-07-03 06:56:41 51°12.912 2°50.358 13.3 321 13.4 100190 100
2007-07-03 06:56:46 51°12.902 2°50.333 13.6 319 13.4 100190 100
2007-07-03 06:56:51 51°12.892 2°50.307 15 319 13.4 100190 100
2007-07-03 06:56:56 51°12.882 2°50.282 12 321 13.4 100190 100
2007-07-03 06:57:01 51°12.872 2°50.256 12 322 13.4 100190 100
2007-07-03 06:57:06 51°12.862 2°50.231 12.4 320 13.4 100190 100
2007-07-03 06:57:11 51°12.852 2°50.206 12.6 320 13.4 100190 100
2007-07-03 06:57:16 51°12.843 2°50.181 14.4 320 13.4 100190 100
2007-07-03 06:57:21 51°12.833 2°50.155 13.8 319 13.4 100180 100
2007-07-03 06:57:26 51°12.822 2°50.13 13.7 319 13.4 100180 100
2007-07-03 06:57:31 51°12.812 2°50.105 13.7 320 13.4 100190 100
2007-07-03 06:57:36 51°12.802 2°50.08 14.7 319 13.4 100190 100
2007-07-03 06:57:41 51°12.792 2°50.055 14.1 281 13.4 100190 100
2007-07-03 06:57:46 51°12.782 2°50.029 14 320 13.4 100190 100
2007-07-03 06:57:51 51°12.772 2°50.004 15.1 317 13.4 100190 100
2007-07-03 06:57:56 51°12.763 2°49.978 15.2 317 13.4 100190 100
2007-07-03 06:58:01 51°12.753 2°49.953 15.7 318 13.4 100180 100
2007-07-03 06:58:06 51°12.743 2°49.927 12 321 13.4 100180 100
2007-07-03 06:58:11 51°12.733 2°49.902 11.7 319 13.4 100180 100
2007-07-03 06:58:16 51°12.723 2°49.877 13.9 321 13.4 100180 100
2007-07-03 06:58:21 51°12.713 2°49.852 13.9 322 13.4 100190 100
2007-07-03 06:58:26 51°12.703 2°49.827 14.7 320 13.4 100190 100
2007-07-03 06:58:31 51°12.692 2°49.801 14.2 320 13.4 100180 100
2007-07-03 06:58:36 51°12.682 2°49.776 13.2 321 13.4 100180 100
2007-07-03 06:58:41 51°12.672 2°49.751 14.8 320 13.4 100180 100
2007-07-03 06:58:46 51°12.663 2°49.725 13.7 320 13.4 100180 100
2007-07-03 06:58:51 51°12.653 2°49.7 13.5 318 13.4 100190 100
2007-07-03 06:58:56 51°12.643 2°49.674 13.7 318 13.4 100190 100
2007-07-03 06:59:01 51°12.634 2°49.648 13.3 319 13.4 100190 100
2007-07-03 06:59:06 51°12.625 2°49.622 12.2 319 13.4 100190 100
2007-07-03 06:59:11 51°12.615 2°49.596 13.3 319 13.4 100190 100
2007-07-03 06:59:16 51°12.606 2°49.569 13.4 319 13.4 100190 100
2007-07-03 06:59:21 51°12.597 2°49.543 13.9 320 13.4 100170 100
2007-07-03 06:59:26 51°12.587 2°49.518 14.6 321 13.4 100170 100
2007-07-03 06:59:31 51°12.578 2°49.491 14.2 320 13.4 100180 100
2007-07-03 06:59:36 51°12.569 2°49.465 14.5 320 13.4 100180 100
2007-07-03 06:59:41 51°12.56 2°49.439 12.8 321 13.4 100180 100
2007-07-03 06:59:46 51°12.551 2°49.413 13.8 321 13.4 100180 100
2007-07-03 06:59:51 51°12.541 2°49.387 13.4 322 13.4 100190 100
2007-07-03 06:59:56 51°12.532 2°49.361 14.5 318 13.4 100190 100
2007-07-03 07:00:01 51°12.522 2°49.335 12.5 321 13.3 100190 100
2007-07-03 07:00:06 51°12.513 2°49.309 13.9 320 13.3 100190 100
2007-07-03 07:00:11 51°12.504 2°49.284 13.8 320 13.3 100190 100
2007-07-03 07:00:16 51°12.494 2°49.258 13.7 319 13.3 100190 100
2007-07-03 07:00:21 51°12.484 2°49.232 12.7 320 13.4 100190 100
2007-07-03 07:00:26 51°12.475 2°49.207 13.5 322 13.4 100190 100
2007-07-03 07:00:31 51°12.465 2°49.181 15.3 323 13.3 100190 100
2007-07-03 07:00:36 51°12.456 2°49.155 15.3 320 13.3 100190 100
2007-07-03 07:00:41 51°12.446 2°49.129 13.5 319 13.4 100180 100
2007-07-03 07:00:46 51°12.437 2°49.103 15.7 318 13.4 100180 100
2007-07-03 07:00:51 51°12.428 2°49.077 14.7 321 13.4 100190 100
2007-07-03 07:00:56 51°12.419 2°49.051 14.2 321 13.4 100190 100
2007-07-03 07:01:01 51°12.409 2°49.026 13.5 320 13.4 100180 100
2007-07-03 07:01:06 51°12.4 2°48.999 15.2 324 13.4 100180 100
2007-07-03 07:01:11 51°12.391 2°48.974 13.5 322 13.4 100180 100
2007-07-03 07:01:16 51°12.382 2°48.948 12.3 319 13.4 100180 100
2007-07-03 07:01:21 51°12.372 2°48.922 13.9 322 13.4 100180 100
2007-07-03 07:01:26 51°12.363 2°48.896 14.4 320 13.4 100180 100
2007-07-03 07:01:31 51°12.354 2°48.87 12.8 320 13.4 100190 100
2007-07-03 07:01:36 51°12.344 2°48.844 14.2 323 13.4 100190 100
2007-07-03 07:01:41 51°12.335 2°48.818 13.3 320 13.4 100190 100
2007-07-03 07:01:46 51°12.326 2°48.791 14.8 321 13.4 100190 100
2007-07-03 07:01:51 51°12.317 2°48.765 13.9 320 13.4 100190 100
2007-07-03 07:01:56 51°12.308 2°48.739 14.3 322 13.4 100190 100
2007-07-03 07:02:01 51°12.298 2°48.713 13.7 319 13.4 100180 100
2007-07-03 07:02:06 51°12.289 2°48.687 14 321 13.4 100180 100
2007-07-03 07:02:11 51°12.279 2°48.662 15 319 13.4 100190 100
2007-07-03 07:02:16 51°12.27 2°48.636 14 322 13.4 100190 100
2007-07-03 07:02:21 51°12.261 2°48.61 15.6 321 13.4 100170 100
2007-07-03 07:02:26 51°12.252 2°48.583 14.8 320 13.4 100170 100
2007-07-03 07:02:31 51°12.244 2°48.557 16.3 320 13.3 100180 100
2007-07-03 07:02:36 51°12.236 2°48.53 14.6 316 13.3 100180 100
2007-07-03 07:02:41 51°12.229 2°48.502 16.5 316 13.4 100190 100
2007-07-03 07:02:46 51°12.222 2°48.474 16.2 33 13.4 100190 100
2007-07-03 07:02:51 51°12.215 2°48.447 15.9 20 13.4 100180 100
2007-07-03 07:02:56 51°12.208 2°48.419 14.2 318 13.4 100180 100
2007-07-03 07:03:01 51°12.202 2°48.391 13 317 13.4 100180 100
2007-07-03 07:03:06 51°12.195 2°48.363 13.7 317 13.4 100180 100
2007-07-03 07:03:11 51°12.189 2°48.334 13.5 315 13.3 100170 100
2007-07-03 07:03:16 51°12.182 2°48.306 16.1 317 13.3 100170 100
2007-07-03 07:03:21 51°12.175 2°48.279 13.7 316 13.4 100170 100
2007-07-03 07:03:26 51°12.168 2°48.251 15.7 316 13.4 100170 100
2007-07-03 07:03:31 51°12.161 2°48.223 15.1 26 13.4 100190 100
2007-07-03 07:03:36 51°12.155 2°48.195 14.2 316 13.4 100190 100
2007-07-03 07:03:41 51°12.148 2°48.167 15 315 13.4 100170 100
2007-07-03 07:03:46 51°12.141 2°48.139 14.4 319 13.4 100170 100
2007-07-03 07:03:51 51°12.134 2°48.111 15.8 318 13.4 100180 100
2007-07-03 07:03:56 51°12.128 2°48.083 14.9 318 13.4 100180 100
2007-07-03 07:04:01 51°12.121 2°48.054 14 318 13.4 100180 100
2007-07-03 07:04:06 51°12.114 2°48.026 15.2 316 13.4 100180 100
2007-07-03 07:04:11 51°12.107 2°47.999 15.8 317 13.5 100180 100
2007-07-03 07:04:16 51°12.1 2°47.971 13 319 13.5 100180 100
2007-07-03 07:04:21 51°12.093 2°47.943 16 283 13.5 100180 100
2007-07-03 07:04:26 51°12.086 2°47.915 14.4 320 13.5 100180 100
2007-07-03 07:04:31 51°12.079 2°47.887 16.7 319 13.4 100190 100
2007-07-03 07:04:36 51°12.072 2°47.859 15.3 318 13.4 100190 100
2007-07-03 07:04:41 51°12.066 2°47.831 15 319 13.5 100190 100
2007-07-03 07:04:46 51°12.059 2°47.803 14.7 317 13.5 100190 100
2007-07-03 07:04:51 51°12.053 2°47.774 16.4 320 13.5 100190 100
2007-07-03 07:04:56 51°12.046 2°47.747 15.6 315 13.5 100190 100
2007-07-03 07:05:01 51°12.039 2°47.719 13.5 318 13.4 100180 100
2007-07-03 07:05:06 51°12.032 2°47.691 14.1 319 13.4 100180 100
2007-07-03 07:05:11 51°12.025 2°47.662 13.3 316 13.4 100170 100
2007-07-03 07:05:16 51°12.018 2°47.634 15.4 318 13.4 100170 100
2007-07-03 07:05:21 51°12.012 2°47.606 14.2 318 13.4 100170 100
2007-07-03 07:05:26 51°12.005 2°47.578 16.1 317 13.4 100170 100
2007-07-03 07:05:31 51°11.998 2°47.55 14.6 317 13.4 100180 100
2007-07-03 07:05:36 51°11.991 2°47.522 14.8 38 13.4 100180 100
2007-07-03 07:05:41 51°11.984 2°47.493 15.6 27 13.4 100180 100
2007-07-03 07:05:46 51°11.978 2°47.465 15.7 318 13.4 100180 100
2007-07-03 07:05:51 51°11.971 2°47.437 15.8 320 13.4 100170 100
2007-07-03 07:05:56 51°11.964 2°47.409 16.4 316 13.4 100170 100
2007-07-03 07:06:01 51°11.957 2°47.381 16.5 317 13.4 100170 100
2007-07-03 07:06:06 51°11.95 2°47.353 14 319 13.4 100170 100
2007-07-03 07:06:11 51°11.943 2°47.324 16.5 317 13.4 100170 100
2007-07-03 07:06:16 51°11.937 2°47.296 16.6 320 13.4 100170 100
2007-07-03 07:06:21 51°11.929 2°47.268 14.7 319 13.4 100170 100
2007-07-03 07:06:26 51°11.922 2°47.24 15 318 13.4 100170 100
2007-07-03 07:06:31 51°11.916 2°47.211 15.4 319 13.4 100170 100
2007-07-03 07:06:36 51°11.909 2°47.184 16.1 317 13.4 100170 100
2007-07-03 07:06:41 51°11.902 2°47.155 14 321 13.5 100170 100
2007-07-03 07:06:46 51°11.895 2°47.127 15.9 320 13.5 100170 100
2007-07-03 07:06:51 51°11.888 2°47.099 15.7 321 13.5 100170 100
2007-07-03 07:06:56 51°11.881 2°47.07 14.2 320 13.5 100170 100
2007-07-03 07:07:01 51°11.874 2°47.042 15.1 317 13.5 100180 100
2007-07-03 07:07:06 51°11.868 2°47.014 13.6 317 13.5 100180 100
2007-07-03 07:07:11 51°11.861 2°46.985 14.4 317 13.5 100180 100
2007-07-03 07:07:16 51°11.854 2°46.957 15 319 13.5 100180 100
2007-07-03 07:07:21 51°11.847 2°46.929 13.2 318 13.5 100180 100
2007-07-03 07:07:26 51°11.84 2°46.9 15.8 319 13.5 100180 100
2007-07-03 07:07:31 51°11.834 2°46.872 15.6 320 13.5 100180 100
2007-07-03 07:07:36 51°11.827 2°46.844 15.6 322 13.5 100180 100
2007-07-03 07:07:41 51°11.82 2°46.815 13.4 320 13.6 100190 100
2007-07-03 07:07:46 51°11.812 2°46.787 15.6 317 13.6 100190 100
2007-07-03 07:07:51 51°11.806 2°46.759 14 318 13.6 100190 100
2007-07-03 07:07:56 51°11.798 2°46.731 13.1 319 13.6 100190 100
2007-07-03 07:08:01 51°11.792 2°46.702 15.1 318 13.5 100180 100
2007-07-03 07:08:06 51°11.784 2°46.674 15.9 319 13.5 100180 100
2007-07-03 07:08:11 51°11.778 2°46.646 14.7 317 13.5 100180 100
2007-07-03 07:08:16 51°11.771 2°46.617 15.7 35 13.5 100180 100
2007-07-03 07:08:21 51°11.765 2°46.588 13.9 317 13.5 100180 100
2007-07-03 07:08:26 51°11.759 2°46.559 15.8 318 13.5 100180 100
2007-07-03 07:08:31 51°11.753 2°46.53 15.6 320 13.5 100180 100
2007-07-03 07:08:36 51°11.748 2°46.501 14.3 33 13.5 100180 100
2007-07-03 07:08:41 51°11.742 2°46.472 13.7 315 13.5 100170 100
2007-07-03 07:08:46 51°11.737 2°46.443 14.8 316 13.5 100170 100
2007-07-03 07:08:51 51°11.732 2°46.413 14.9 316 13.5 100170 100
2007-07-03 07:08:56 51°11.727 2°46.383 14.4 318 13.5 100170 100
2007-07-03 07:09:01 51°11.721 2°46.355 17.5 281 13.5 100170 100
2007-07-03 07:09:06 51°11.716 2°46.326 15.4 319 13.5 100170 100
2007-07-03 07:09:11 51°11.71 2°46.297 15.9 318 13.6 100170 100
2007-07-03 07:09:16 51°11.705 2°46.268 15.6 320 13.6 100170 100
2007-07-03 07:09:21 51°11.699 2°46.239 17 318 13.6 100170 100
2007-07-03 07:09:26 51°11.693 2°46.21 15.6 321 13.6 100170 100
2007-07-03 07:09:31 51°11.688 2°46.181 14.9 282 13.5 100170 100
2007-07-03 07:09:36 51°11.682 2°46.152 17.2 316 13.5 100170 100
2007-07-03 07:09:41 51°11.677 2°46.123 13.8 320 13.5 100170 100
2007-07-03 07:09:46 51°11.671 2°46.094 17.2 319 13.5 100170 100
2007-07-03 07:09:51 51°11.666 2°46.065 17.1 318 13.5 100180 100
2007-07-03 07:09:56 51°11.66 2°46.036 15.5 318 13.5 100180 100
2007-07-03 07:10:01 51°11.655 2°46.007 16.7 318 13.6 100170 100
2007-07-03 07:10:06 51°11.649 2°45.978 15 318 13.6 100170 100
2007-07-03 07:10:11 51°11.643 2°45.949 17.4 284 13.6 100170 100
2007-07-03 07:10:16 51°11.638 2°45.92 17.5 318 13.6 100170 100
2007-07-03 07:10:21 51°11.633 2°45.89 16.6 320 13.5 100170 100
2007-07-03 07:10:26 51°11.628 2°45.861 14.7 320 13.5 100170 100
2007-07-03 07:10:31 51°11.623 2°45.832 14.9 319 13.5 100180 100
2007-07-03 07:10:36 51°11.618 2°45.802 15.2 319 13.5 100180 100
2007-07-03 07:10:41 51°11.614 2°45.773 16.5 318 13.5 100170 100
2007-07-03 07:10:46 51°11.609 2°45.744 16 318 13.5 100170 100
2007-07-03 07:10:51 51°11.604 2°45.714 14.4 318 13.5 100180 100
2007-07-03 07:10:56 51°11.599 2°45.686 16.2 319 13.5 100180 100
2007-07-03 07:11:01 51°11.594 2°45.656 15.8 279 13.5 100170 100
2007-07-03 07:11:06 51°11.589 2°45.627 14.4 319 13.5 100170 100
2007-07-03 07:11:11 51°11.584 2°45.598 16.5 320 13.5 100180 100
2007-07-03 07:11:16 51°11.579 2°45.569 14.7 318 13.5 100180 100
2007-07-03 07:11:21 51°11.574 2°45.54 16.1 318 13.5 100170 100
2007-07-03 07:11:26 51°11.569 2°45.511 16.4 318 13.5 100170 100
2007-07-03 07:11:31 51°11.564 2°45.482 14.4 320 13.6 100170 100
2007-07-03 07:11:36 51°11.559 2°45.452 15.9 319 13.6 100170 100
2007-07-03 07:11:41 51°11.554 2°45.423 14.2 318 13.6 100170 100
2007-07-03 07:11:46 51°11.549 2°45.394 13.7 319 13.6 100170 100
2007-07-03 07:11:51 51°11.544 2°45.365 14.1 317 13.6 100170 100
2007-07-03 07:11:56 51°11.539 2°45.335 12.9 320 13.6 100170 100
2007-07-03 07:12:01 51°11.534 2°45.306 16.3 320 13.6 100180 100
2007-07-03 07:12:06 51°11.529 2°45.277 15.4 319 13.6 100180 100
2007-07-03 07:12:11 51°11.524 2°45.248 15.1 319 13.6 100170 100
2007-07-03 07:12:16 51°11.519 2°45.219 15.3 319 13.6 100170 100
2007-07-03 07:12:21 51°11.514 2°45.189 13.8 318 13.7 100170 100
2007-07-03 07:12:26 51°11.509 2°45.16 13.8 319 13.7 100170 100
2007-07-03 07:12:31 51°11.504 2°45.131 15.5 319 13.6 100170 100
2007-07-03 07:12:36 51°11.499 2°45.102 13.9 318 13.6 100170 100
2007-07-03 07:12:41 51°11.494 2°45.072 13.6 318 13.6 100170 100
2007-07-03 07:12:46 51°11.488 2°45.043 13.1 317 13.6 100170 100
2007-07-03 07:12:51 51°11.483 2°45.014 15.5 317 13.6 100170 100
2007-07-03 07:12:56 51°11.478 2°44.985 12.7 318 13.6 100170 100
2007-07-03 07:13:01 51°11.473 2°44.955 13.4 319 13.6 100170 100
2007-07-03 07:13:06 51°11.468 2°44.926 15.2 35 13.6 100170 100
2007-07-03 07:13:11 51°11.463 2°44.897 15.2 317 13.6 100170 100
2007-07-03 07:13:16 51°11.458 2°44.867 14.4 319 13.6 100170 100
2007-07-03 07:13:21 51°11.453 2°44.838 15.5 320 13.6 100170 100
2007-07-03 07:13:26 51°11.448 2°44.809 15.2 318 13.6 100170 100
2007-07-03 07:13:31 51°11.443 2°44.78 14.4 315 13.6 100170 100
2007-07-03 07:13:36 51°11.438 2°44.75 14.6 319 13.6 100170 100
2007-07-03 07:13:41 51°11.434 2°44.721 15.3 320 13.7 100170 100
2007-07-03 07:13:46 51°11.429 2°44.692 14.5 320 13.7 100170 100
2007-07-03 07:13:51 51°11.424 2°44.662 13.6 320 13.6 100170 100
2007-07-03 07:13:56 51°11.419 2°44.633 14.6 317 13.6 100170 100
2007-07-03 07:14:01 51°11.414 2°44.604 15.2 315 13.6 100170 100
2007-07-03 07:14:06 51°11.409 2°44.574 13.6 318 13.6 100170 100
2007-07-03 07:14:11 51°11.404 2°44.545 15.7 280 13.6 100170 100
2007-07-03 07:14:16 51°11.399 2°44.516 15.4 318 13.6 100170 100
2007-07-03 07:14:21 51°11.394 2°44.486 17.2 317 13.6 100180 100
2007-07-03 07:14:26 51°11.39 2°44.457 15.6 316 13.6 100180 100
2007-07-03 07:14:31 51°11.385 2°44.428 15 22 13.6 100170 100
2007-07-03 07:14:36 51°11.38 2°44.398 15.3 319 13.6 100170 100
2007-07-03 07:14:41 51°11.375 2°44.369 15.1 24 13.6 100170 100
2007-07-03 07:14:46 51°11.37 2°44.34 14.2 318 13.6 100170 100
2007-07-03 07:14:51 51°11.365 2°44.311 13.9 317 13.5 100160 100
2007-07-03 07:14:56 51°11.36 2°44.282 14.5 316 13.5 100160 100
2007-07-03 07:15:01 51°11.355 2°44.253 14.7 316 13.5 100160 100
2007-07-03 07:15:06 51°11.35 2°44.223 15.9 315 13.5 100160 100
2007-07-03 07:15:11 51°11.345 2°44.194 14 21 13.5 100160 100
2007-07-03 07:15:16 51°11.34 2°44.165 15.5 318 13.5 100160 100
2007-07-03 07:15:21 51°11.335 2°44.136 14.1 318 13.5 100160 100
2007-07-03 07:15:26 51°11.33 2°44.106 14.2 319 13.5 100160 100
2007-07-03 07:15:31 51°11.325 2°44.077 15.3 318 13.5 100160 100
2007-07-03 07:15:36 51°11.32 2°44.048 15.5 318 13.5 100160 100
2007-07-03 07:15:41 51°11.315 2°44.018 15.9 283 13.6 100160 100
2007-07-03 07:15:46 51°11.31 2°43.989 13.5 316 13.6 100160 100
2007-07-03 07:15:51 51°11.305 2°43.96 14.3 26 13.6 100170 100
2007-07-03 07:15:56 51°11.3 2°43.931 12.9 33 13.6 100170 100
2007-07-03 07:16:01 51°11.295 2°43.901 15.2 318 13.6 100170 100
2007-07-03 07:16:06 51°11.29 2°43.872 15.5 316 13.6 100170 100
2007-07-03 07:16:11 51°11.285 2°43.843 13.5 281 13.6 100170 100
2007-07-03 07:16:16 51°11.28 2°43.813 14.5 319 13.6 100170 100
2007-07-03 07:16:21 51°11.275 2°43.784 14.2 317 13.7 100170 100
2007-07-03 07:16:26 51°11.27 2°43.755 14.3 318 13.7 100170 100
2007-07-03 07:16:31 51°11.265 2°43.725 14.8 318 13.6 100170 100
2007-07-03 07:16:36 51°11.26 2°43.696 15.1 317 13.6 100170 100
2007-07-03 07:16:41 51°11.256 2°43.666 14.5 320 13.6 100170 100
2007-07-03 07:16:46 51°11.251 2°43.637 14.6 35 13.6 100170 100
2007-07-03 07:16:51 51°11.246 2°43.607 12.8 25 13.6 100170 100
2007-07-03 07:16:56 51°11.241 2°43.578 15.5 317 13.6 100170 100
2007-07-03 07:17:01 51°11.235 2°43.548 15.5 318 13.6 100160 100
2007-07-03 07:17:06 51°11.23 2°43.519 14.2 318 13.6 100160 100
2007-07-03 07:17:11 51°11.225 2°43.49 15.4 316 13.6 100170 100
2007-07-03 07:17:16 51°11.22 2°43.46 14.8 318 13.6 100170 100
2007-07-03 07:17:21 51°11.215 2°43.431 14.1 277 13.6 100160 100
2007-07-03 07:17:26 51°11.21 2°43.401 13.7 315 13.6 100160 100
2007-07-03 07:17:31 51°11.205 2°43.372 13 318 13.6 100170 100
2007-07-03 07:17:36 51°11.2 2°43.342 13.4 36 13.6 100170 100
2007-07-03 07:17:41 51°11.195 2°43.313 12.6 21 13.6 100160 100
2007-07-03 07:17:46 51°11.19 2°43.283 12.9 317 13.6 100160 100
2007-07-03 07:17:51 51°11.185 2°43.254 13.1 316 13.6 100170 100
2007-07-03 07:17:56 51°11.179 2°43.225 13.4 318 13.6 100170 100
2007-07-03 07:18:01 51°11.174 2°43.195 12.9 319 13.7 100160 100
2007-07-03 07:18:06 51°11.169 2°43.166 14 319 13.7 100160 100
2007-07-03 07:18:11 51°11.164 2°43.136 13.2 317 13.7 100170 100
2007-07-03 07:18:16 51°11.16 2°43.106 14.2 318 13.7 100170 100
2007-07-03 07:18:21 51°11.155 2°43.077 13.6 319 13.7 100160 100
2007-07-03 07:18:26 51°11.15 2°43.047 13.4 319 13.7 100160 100
2007-07-03 07:18:31 51°11.145 2°43.018 13.4 282 13.7 100170 100
2007-07-03 07:18:36 51°11.139 2°42.988 14.2 318 13.7 100170 100
2007-07-03 07:18:41 51°11.133 2°42.959 14.8 319 13.7 100170 100
2007-07-03 07:18:46 51°11.128 2°42.93 14.1 317 13.7 100170 100
2007-07-03 07:18:51 51°11.122 2°42.901 14.9 318 13.7 100160 100
2007-07-03 07:18:56 51°11.116 2°42.872 16.1 319 13.7 100160 100
2007-07-03 07:19:01 51°11.11 2°42.843 13.6 320 13.7 100170 100
2007-07-03 07:19:06 51°11.104 2°42.814 14.1 317 13.7 100170 100
2007-07-03 07:19:11 51°11.098 2°42.785 15.2 318 13.7 100160 100
2007-07-03 07:19:16 51°11.093 2°42.756 15.4 317 13.7 100160 100
2007-07-03 07:19:21 51°11.088 2°42.727 14.3 318 13.7 100170 100
2007-07-03 07:19:26 51°11.082 2°42.698 15.1 316 13.7 100170 100
2007-07-03 07:19:31 51°11.078 2°42.668 14.7 316 13.7 100160 100
2007-07-03 07:19:36 51°11.073 2°42.638 14.8 316 13.7 100160 100
2007-07-03 07:19:41 51°11.069 2°42.608 15.9 280 13.6 100160 100
2007-07-03 07:19:46 51°11.065 2°42.58 13.3 36 13.6 100160 100
2007-07-03 07:19:51 51°11.063 2°42.553 12.9 25 13.7 100160 100
2007-07-03 07:19:56 51°11.062 2°42.527 11.2 233 13.7 100160 100
2007-07-03 07:20:01 51°11.064 2°42.502 14.1 27 13.7 100150 100
2007-07-03 07:20:06 51°11.066 2°42.479 13 34 13.7 100150 100
2007-07-03 07:20:11 51°11.07 2°42.456 13.1 26 13.7 100150 100
2007-07-03 07:20:16 51°11.073 2°42.435 10.7 240 13.7 100150 100
2007-07-03 07:20:21 51°11.076 2°42.414 10.6 24 13.7 100150 100
2007-07-03 07:20:26 51°11.079 2°42.393 8.9 241 13.7 100150 100
2007-07-03 07:20:31 51°11.081 2°42.375 10.7 26 13.7 100160 100
2007-07-03 07:20:36 51°11.082 2°42.357 12.3 238 13.7 100160 100
2007-07-03 07:20:41 51°11.083 2°42.34 10.1 26 13.7 100160 100
2007-07-03 07:20:46 51°11.083 2°42.324 12.4 236 13.7 100160 100
2007-07-03 07:20:51 51°11.083 2°42.308 12.1 24 13.7 100170 100
2007-07-03 07:20:56 51°11.083 2°42.293 11.6 235 13.7 100170 100
2007-07-03 07:21:01 51°11.083 2°42.279 9.2 26 13.7 100170 100
2007-07-03 07:21:06 51°11.083 2°42.265 9.5 233 13.7 100170 100
2007-07-03 07:21:11 51°11.083 2°42.251 11.8 279 13.7 100170 100
2007-07-03 07:21:16 51°11.082 2°42.239 9.5 241 13.7 100170 100
2007-07-03 07:21:21 51°11.082 2°42.226 10 22 13.7 100180 100
2007-07-03 07:21:26 51°11.082 2°42.214 9.2 35 13.7 100180 100
2007-07-03 07:21:31 51°11.082 2°42.203 10.2 284 13.7 100180 100
2007-07-03 07:21:36 51°11.082 2°42.191 12.4 242 13.7 100180 100
2007-07-03 07:21:41 51°11.082 2°42.18 10.6 22 13.7 100180 100
2007-07-03 07:21:46 51°11.082 2°42.17 12.4 242 13.7 100180 100
2007-07-03 07:21:51 51°11.083 2°42.159 9.6 26 13.7 100170 100
2007-07-03 07:21:56 51°11.083 2°42.15 9 245 13.7 100170 100
2007-07-03 07:22:01 51°11.084 2°42.14 9.1 281 13.8 100180 100
2007-07-03 07:22:06 51°11.085 2°42.131 10.9 244 13.8 100180 100
2007-07-03 07:22:11 51°11.085 2°42.122 10.6 244 13.7 100170 100
2007-07-03 07:22:16 51°11.086 2°42.114 7.8 248 13.7 100170 100
2007-07-03 07:22:21 51°11.087 2°42.106 10.4 23 13.7 100180 100
2007-07-03 07:22:26 51°11.088 2°42.099 7.8 250 13.7 100180 100
2007-07-03 07:22:31 51°11.088 2°42.094 7.7 250 13.7 100180 100
2007-07-03 07:22:36 51°11.089 2°42.089 11.6 254 13.7 100180 100
2007-07-03 07:22:41 51°11.089 2°42.085 9.9 281 13.7 100180 100
2007-07-03 07:22:46 51°11.09 2°42.082 8.7 258 13.7 100180 100
2007-07-03 07:22:51 51°11.09 2°42.081 8.3 259 13.7 100190 100
2007-07-03 07:22:56 51°11.09 2°42.079 10.4 259 13.7 100190 100
2007-07-03 07:23:01 51°11.09 2°42.079 10.7 261 13.7 100180 100
2007-07-03 07:23:06 51°11.09 2°42.078 12.1 261 13.7 100180 100
2007-07-03 07:23:11 51°11.09 2°42.077 8.6 279 13.7 100190 100
2007-07-03 07:23:16 51°11.089 2°42.076 8 262 13.7 100190 100
2007-07-03 07:23:21 51°11.089 2°42.075 9 261 13.7 100190 100
2007-07-03 07:23:26 51°11.089 2°42.075 8.4 261 13.7 100190 100
2007-07-03 07:23:32 51°11.089 2°42.073 7.1 286 13.7 100190 100
2007-07-03 07:23:38 51°11.089 2°42.072 7.9 267 13.7 100190 100
2007-07-03 07:23:43 51°11.089 2°42.071 6.3 267 13.7 100190 99
2007-07-03 07:23:49 51°11.089 2°42.07 5.6 262 13.7 100190 99
2007-07-03 07:23:54 51°11.089 2°42.069 6.8 263 13.6 100190 99
2007-07-03 07:24:00 51°11.089 2°42.068 6.3 260 13.6 100190 99
2007-07-03 07:24:05 51°11.089 2°42.066 7.4 268 13.6 100190 99
2007-07-03 07:24:09 51°11.089 2°42.066 7.7 263 13.6 100190 99
2007-07-03 07:24:14 51°11.089 2°42.064 6.8 264 13.6 100190 99
2007-07-03 07:24:20 51°11.089 2°42.063 7.5 265 13.6 100190 99
2007-07-03 07:24:25 51°11.089 2°42.061 6 266 13.7 100200 99
2007-07-03 07:24:29 51°11.089 2°42.06 9.4 270 13.7 100200 99
2007-07-03 07:24:34 51°11.089 2°42.059 5.8 279 13.7 100200 100
2007-07-03 07:24:39 51°11.089 2°42.057 8 267 13.7 100200 100
2007-07-03 07:24:44 51°11.089 2°42.056 8.3 284 13.7 100200 100
2007-07-03 07:24:49 51°11.089 2°42.055 9.6 42 13.7 100200 100
2007-07-03 07:24:53 51°11.089 2°42.054 9.5 270 13.8 100200 100
2007-07-03 07:24:58 51°11.09 2°42.053 9.1 315 13.8 100200 100
2007-07-03 07:25:02 51°11.09 2°42.051 6.8 269 13.8 100200 100
2007-07-03 07:25:08 51°11.09 2°42.05 6.8 43 13.8 100200 100
2007-07-03 07:25:12 51°11.09 2°42.049 8.6 23 13.8 100190 100
2007-07-03 07:25:17 51°11.091 2°42.048 6.7 268 13.8 100190 100
2007-07-03 07:25:22 51°11.091 2°42.046 8.7 20 13.8 100200 100
2007-07-03 07:25:26 51°11.091 2°42.045 6.9 270 13.8 100200 100
2007-07-03 07:25:31 51°11.091 2°42.044 7.2 284 13.9 100190 100
2007-07-03 07:25:36 51°11.091 2°42.043 9.8 358 13.9 100190 100
2007-07-03 07:25:41 51°11.092 2°42.042 7 270 13.9 100200 100
2007-07-03 07:25:46 51°11.092 2°42.04 9.3 269 13.9 100200 100
2007-07-03 07:25:51 51°11.092 2°42.039 9.2 270 13.9 100200 100
2007-07-03 07:25:56 51°11.092 2°42.038 6.8 39 13.9 100200 100
2007-07-03 07:26:01 51°11.092 2°42.036 8.4 24 13.8 100200 100
2007-07-03 07:26:06 51°11.093 2°42.035 8.7 17 13.8 100200 100
2007-07-03 07:26:11 51°11.093 2°42.033 9.4 79 13.8 100190 100
2007-07-03 07:26:16 51°11.093 2°42.032 9.9 31 13.8 100190 100
2007-07-03 07:26:21 51°11.093 2°42.03 9.5 81 13.8 100190 100
2007-07-03 07:26:26 51°11.094 2°42.029 7.4 39 13.8 100190 100
2007-07-03 07:26:31 51°11.094 2°42.028 9.9 24 13.8 100200 100
2007-07-03 07:26:36 51°11.094 2°42.026 8 270 13.8 100200 100
2007-07-03 07:26:41 51°11.094 2°42.025 11.3 30 13.8 100190 100
2007-07-03 07:26:46 51°11.095 2°42.024 10.3 269 13.8 100190 100
2007-07-03 07:26:51 51°11.095 2°42.023 7.8 27 13.8 100190 100
2007-07-03 07:26:56 51°11.096 2°42.021 8.5 267 13.8 100190 100
2007-07-03 07:27:01 51°11.096 2°42.02 8.8 83 13.8 100190 100
2007-07-03 07:27:06 51°11.096 2°42.019 6.9 269 13.8 100190 100
2007-07-03 07:27:11 51°11.097 2°42.018 8.9 27 13.7 100190 100
2007-07-03 07:27:16 51°11.097 2°42.016 8.7 38 13.7 100190 100
2007-07-03 07:27:21 51°11.097 2°42.015 6.3 26 13.7 100190 99
2007-07-03 07:27:26 51°11.098 2°42.014 8.7 268 13.7 100190 99
2007-07-03 07:27:31 51°11.098 2°42.012 7.8 270 13.7 100190 99
2007-07-03 07:27:36 51°11.098 2°42.011 8.6 270 13.7 100190 99
2007-07-03 07:27:41 51°11.098 2°42.009 9.3 270 13.7 100190 99
2007-07-03 07:27:46 51°11.099 2°42.008 8.4 265 13.7 100190 99
2007-07-03 07:27:51 51°11.099 2°42.006 6.5 267 13.7 100190 100
2007-07-03 07:27:56 51°11.1 2°42.005 9.4 269 13.7 100190 100
2007-07-03 07:28:01 51°11.1 2°42.003 7.2 268 13.8 100190 100
2007-07-03 07:28:06 51°11.1 2°42.002 9.8 43 13.8 100190 100
2007-07-03 07:28:11 51°11.101 2°42.001 7.1 80 13.8 100190 100
2007-07-03 07:28:16 51°11.101 2°41.999 7.4 270 13.8 100190 100
2007-07-03 07:28:21 51°11.101 2°41.998 9.2 268 13.8 100200 100
2007-07-03 07:28:26 51°11.102 2°41.997 9.9 270 13.8 100200 100
2007-07-03 07:28:31 51°11.102 2°41.995 8.6 270 13.8 100190 100
2007-07-03 07:28:36 51°11.103 2°41.994 9.1 269 13.8 100190 100
2007-07-03 07:28:41 51°11.103 2°41.992 9.9 281 13.8 100190 100
2007-07-03 07:28:46 51°11.103 2°41.991 8.6 269 13.8 100190 100
2007-07-03 07:28:51 51°11.104 2°41.989 7.5 270 13.8 100190 100
2007-07-03 07:28:56 51°11.104 2°41.988 6.5 265 13.8 100190 100
2007-07-03 07:29:01 51°11.104 2°41.986 9.2 270 13.8 100180 100
2007-07-03 07:29:06 51°11.105 2°41.985 5.3 263 13.8 100180 100
2007-07-03 07:29:11 51°11.105 2°41.984 7.9 265 13.8 100190 100
2007-07-03 07:29:16 51°11.106 2°41.982 4.6 263 13.8 100190 100
2007-07-03 07:29:21 51°11.106 2°41.981 5.4 283 13.7 100190 100
2007-07-03 07:29:26 51°11.106 2°41.979 6 265 13.7 100190 100
2007-07-03 07:29:31 51°11.107 2°41.977 4.4 263 13.7 100190 99
2007-07-03 07:29:36 51°11.107 2°41.976 5.9 265 13.7 100190 99
2007-07-03 07:29:41 51°11.107 2°41.974 4.4 264 13.7 100190 99
2007-07-03 07:29:46 51°11.108 2°41.973 8.4 270 13.7 100190 99
2007-07-03 07:29:51 51°11.108 2°41.971 7.2 270 13.7 100190 99
2007-07-03 07:29:56 51°11.108 2°41.97 9.6 268 13.7 100190 99
2007-07-03 07:30:01 51°11.109 2°41.968 9.4 270 13.8 100190 100
2007-07-03 07:30:06 51°11.109 2°41.967 9.2 270 13.8 100190 100
2007-07-03 07:30:11 51°11.11 2°41.965 6.3 281 13.8 100190 100
2007-07-03 07:30:16 51°11.11 2°41.964 7 263 13.8 100190 100
2007-07-03 07:30:21 51°11.11 2°41.962 6.7 269 13.8 100190 100
2007-07-03 07:30:26 51°11.111 2°41.96 6 265 13.8 100190 100
2007-07-03 07:30:31 51°11.112 2°41.958 8.5 265 13.8 100190 100
2007-07-03 07:30:36 51°11.113 2°41.955 6.2 262 13.8 100190 100
2007-07-03 07:30:41 51°11.114 2°41.951 8.1 261 13.8 100190 100
2007-07-03 07:30:46 51°11.116 2°41.947 9.4 261 13.8 100190 100
2007-07-03 07:30:51 51°11.118 2°41.941 8.7 259 13.8 100190 100
2007-07-03 07:30:56 51°11.119 2°41.935 10.7 253 13.8 100190 100
2007-07-03 07:31:01 51°11.121 2°41.927 10 281 13.8 100190 100
2007-07-03 07:31:06 51°11.123 2°41.919 7.8 242 13.8 100190 100
2007-07-03 07:31:11 51°11.125 2°41.909 7.7 22 13.8 100180 100
2007-07-03 07:31:16 51°11.126 2°41.898 8.7 240 13.8 100180 100
2007-07-03 07:31:21 51°11.126 2°41.886 9.7 21 13.8 100190 100
2007-07-03 07:31:26 51°11.126 2°41.873 9.1 232 13.8 100190 100
2007-07-03 07:31:31 51°11.126 2°41.858 9.3 24 13.8 100190 100
2007-07-03 07:31:36 51°11.124 2°41.843 12.1 35 13.8 100190 100
2007-07-03 07:31:41 51°11.121 2°41.827 11.8 285 13.8 100190 100
2007-07-03 07:31:46 51°11.118 2°41.81 12.3 317 13.8 100190 100
2007-07-03 07:31:51 51°11.114 2°41.792 10.8 24 13.8 100180 100
2007-07-03 07:31:56 51°11.11 2°41.773 11.8 315 13.8 100180 100
2007-07-03 07:32:01 51°11.106 2°41.753 11.2 26 13.8 100170 100
2007-07-03 07:32:06 51°11.102 2°41.733 12.7 34 13.8 100170 100
2007-07-03 07:32:11 51°11.098 2°41.712 12.8 315 13.8 100170 100
2007-07-03 07:32:16 51°11.094 2°41.69 13.2 316 13.8 100170 100
2007-07-03 07:32:21 51°11.089 2°41.667 13.1 317 13.8 100180 100
2007-07-03 07:32:26 51°11.084 2°41.643 15.9 317 13.8 100180 100
2007-07-03 07:32:31 51°11.079 2°41.619 14.2 286 13.8 100170 100
2007-07-03 07:32:36 51°11.075 2°41.595 15.3 317 13.8 100170 100
2007-07-03 07:32:41 51°11.07 2°41.57 13 318 13.8 100160 100
2007-07-03 07:32:46 51°11.064 2°41.545 13.1 316 13.8 100160 100
2007-07-03 07:32:51 51°11.06 2°41.519 12.3 317 13.8 100170 99
2007-07-03 07:32:56 51°11.054 2°41.493 13 317 13.8 100170 99
2007-07-03 07:33:01 51°11.049 2°41.466 15.1 318 13.8 100160 99
2007-07-03 07:33:06 51°11.044 2°41.439 14.5 317 13.8 100160 99
2007-07-03 07:33:11 51°11.039 2°41.411 12.8 317 13.8 100160 99
2007-07-03 07:33:16 51°11.034 2°41.384 14.4 316 13.8 100160 99
2007-07-03 07:33:21 51°11.028 2°41.356 14.5 283 13.8 100160 99
2007-07-03 07:33:26 51°11.023 2°41.328 14.2 318 13.8 100160 99
2007-07-03 07:33:31 51°11.018 2°41.299 15.6 320 13.8 100160 99
2007-07-03 07:33:36 51°11.013 2°41.271 12.9 320 13.8 100160 99
2007-07-03 07:33:41 51°11.007 2°41.243 13.3 320 13.8 100160 99
2007-07-03 07:33:46 51°11.002 2°41.214 13.3 315 13.8 100160 99
2007-07-03 07:33:51 51°10.997 2°41.185 14 317 13.8 100170 99
2007-07-03 07:33:56 51°10.991 2°41.156 16.4 320 13.8 100170 99
2007-07-03 07:34:01 51°10.985 2°41.127 13.8 320 13.8 100170 99
2007-07-03 07:34:06 51°10.98 2°41.098 15.5 319 13.8 100170 99
2007-07-03 07:34:11 51°10.974 2°41.069 14.5 319 13.8 100160 99
2007-07-03 07:34:16 51°10.969 2°41.04 15 320 13.8 100160 99
2007-07-03 07:34:21 51°10.963 2°41.011 15 320 13.9 100150 99
2007-07-03 07:34:26 51°10.957 2°40.982 14.4 317 13.9 100150 99
2007-07-03 07:34:31 51°10.952 2°40.953 13.5 278 13.8 100160 99
2007-07-03 07:34:36 51°10.946 2°40.923 14.8 318 13.8 100160 99
2007-07-03 07:34:41 51°10.941 2°40.894 13.8 317 13.9 100160 99
2007-07-03 07:34:46 51°10.935 2°40.865 14 317 13.9 100160 99
2007-07-03 07:34:51 51°10.93 2°40.836 13.6 24 13.9 100160 99
2007-07-03 07:34:56 51°10.925 2°40.806 14.3 317 13.9 100160 99
2007-07-03 07:35:01 51°10.919 2°40.777 14.5 320 13.9 100160 99
2007-07-03 07:35:06 51°10.914 2°40.748 15.5 318 13.9 100160 99
2007-07-03 07:35:11 51°10.909 2°40.718 16 319 13.9 100150 99
2007-07-03 07:35:16 51°10.903 2°40.689 14.6 34 13.9 100150 99
2007-07-03 07:35:21 51°10.898 2°40.66 15.3 318 13.9 100150 99
2007-07-03 07:35:26 51°10.892 2°40.631 14.5 319 13.9 100150 99
2007-07-03 07:35:31 51°10.886 2°40.601 14.2 319 13.9 100160 99
2007-07-03 07:35:36 51°10.881 2°40.572 14.7 318 13.9 100160 99
2007-07-03 07:35:41 51°10.875 2°40.543 15.5 281 13.8 100150 99
2007-07-03 07:35:46 51°10.87 2°40.514 14.3 318 13.8 100150 99
2007-07-03 07:35:51 51°10.864 2°40.485 13.4 318 13.8 100160 99
2007-07-03 07:35:56 51°10.858 2°40.455 13.6 317 13.8 100160 99
2007-07-03 07:36:01 51°10.853 2°40.426 12.6 316 13.9 100160 99
2007-07-03 07:36:06 51°10.847 2°40.397 13.1 319 13.9 100160 99
2007-07-03 07:36:11 51°10.841 2°40.368 15.8 284 13.9 100160 99
2007-07-03 07:36:16 51°10.836 2°40.338 15.7 317 13.9 100160 99
2007-07-03 07:36:21 51°10.83 2°40.309 14.9 317 13.9 100160 99
2007-07-03 07:36:26 51°10.825 2°40.28 14.3 316 13.9 100160 99
2007-07-03 07:36:31 51°10.819 2°40.25 14.9 25 13.9 100160 99
2007-07-03 07:36:36 51°10.814 2°40.22 14.2 318 13.9 100160 99
2007-07-03 07:36:41 51°10.808 2°40.191 13.8 317 13.9 100160 99
2007-07-03 07:36:46 51°10.803 2°40.162 13.4 318 13.9 100160 99
2007-07-03 07:36:51 51°10.798 2°40.132 15.3 319 13.9 100150 99
2007-07-03 07:36:56 51°10.792 2°40.103 13.9 317 13.9 100150 99
2007-07-03 07:37:01 51°10.787 2°40.073 13.4 315 13.9 100150 99
2007-07-03 07:37:06 51°10.781 2°40.043 13.3 319 13.9 100150 99
2007-07-03 07:37:11 51°10.776 2°40.014 15.9 283 13.9 100150 99
2007-07-03 07:37:16 51°10.77 2°39.984 14.3 319 13.9 100150 99
2007-07-03 07:37:21 51°10.765 2°39.955 15.8 317 13.9 100150 99
2007-07-03 07:37:26 51°10.76 2°39.925 15.9 319 13.9 100150 99
2007-07-03 07:37:31 51°10.755 2°39.896 16.7 280 13.9 100160 99
2007-07-03 07:37:36 51°10.749 2°39.866 14.5 318 13.9 100160 99
2007-07-03 07:37:41 51°10.744 2°39.838 14 321 13.9 100150 99
2007-07-03 07:37:46 51°10.739 2°39.808 14.8 320 13.9 100150 99
2007-07-03 07:37:51 51°10.733 2°39.779 14.6 319 13.9 100150 99
2007-07-03 07:37:57 51°10.726 2°39.744 15.2 319 13.9 100150 99
2007-07-03 07:38:01 51°10.722 2°39.72 14.3 280 14 100150 99
2007-07-03 07:38:06 51°10.716 2°39.69 16.2 315 14 100150 99
2007-07-03 07:38:11 51°10.711 2°39.661 15.3 316 13.9 100150 98
2007-07-03 07:38:16 51°10.706 2°39.632 13.4 316 13.9 100150 98
2007-07-03 07:38:21 51°10.7 2°39.602 15.2 285 13.9 100160 98
2007-07-03 07:38:26 51°10.695 2°39.573 13.5 316 13.9 100160 98
2007-07-03 07:38:31 51°10.689 2°39.543 15.5 281 13.9 100160 98
2007-07-03 07:38:36 51°10.684 2°39.514 13 317 13.9 100160 98
2007-07-03 07:38:41 51°10.679 2°39.484 15 281 13.9 100150 98
2007-07-03 07:38:46 51°10.673 2°39.455 13.3 319 13.9 100150 98
2007-07-03 07:38:51 51°10.668 2°39.425 14.7 319 13.9 100160 98
2007-07-03 07:38:56 51°10.662 2°39.395 14.3 319 13.9 100160 98
2007-07-03 07:39:01 51°10.657 2°39.366 14 320 14 100150 98
2007-07-03 07:39:06 51°10.652 2°39.336 15 317 14 100150 98
2007-07-03 07:39:11 51°10.646 2°39.307 14.4 285 14 100150 98
2007-07-03 07:39:16 51°10.641 2°39.277 15.2 318 14 100150 98
2007-07-03 07:39:21 51°10.635 2°39.247 14.5 318 14 100160 98
2007-07-03 07:39:26 51°10.63 2°39.218 13.5 319 14 100160 98
2007-07-03 07:39:31 51°10.624 2°39.188 14 285 14 100160 98
2007-07-03 07:39:36 51°10.619 2°39.159 12.5 320 14 100160 98
2007-07-03 07:39:41 51°10.613 2°39.129 12.7 320 14.1 100160 99
2007-07-03 07:39:46 51°10.608 2°39.1 14.6 320 14.1 100160 99
2007-07-03 07:39:51 51°10.602 2°39.07 15 319 14.1 100160 99
2007-07-03 07:39:56 51°10.597 2°39.041 15.5 318 14.1 100160 99
2007-07-03 07:40:01 51°10.591 2°39.011 16.2 318 14 100160 98
2007-07-03 07:40:06 51°10.586 2°38.982 12.6 316 14 100160 98
2007-07-03 07:40:11 51°10.581 2°38.952 14.9 317 14.1 100160 98
2007-07-03 07:40:17 51°10.574 2°38.917 15.9 321 14.1 100160 98
2007-07-03 07:40:21 51°10.569 2°38.893 15 285 14 100150 98
2007-07-03 07:40:26 51°10.564 2°38.864 15.3 320 14 100150 98
2007-07-03 07:40:31 51°10.558 2°38.834 15.5 320 14.1 100140 98
2007-07-03 07:40:36 51°10.553 2°38.804 16.7 320 14.1 100140 98
2007-07-03 07:40:41 51°10.547 2°38.775 16.9 284 14.1 100150 98
2007-07-03 07:40:46 51°10.542 2°38.746 15.8 317 14.1 100150 98
2007-07-03 07:40:51 51°10.536 2°38.716 17 317 14.1 100150 98
2007-07-03 07:40:56 51°10.531 2°38.687 15.9 38 14.1 100150 98
2007-07-03 07:41:01 51°10.526 2°38.657 14.1 317 14.1 100150 98
2007-07-03 07:41:06 51°10.521 2°38.628 15 317 14.1 100150 98
2007-07-03 07:41:11 51°10.515 2°38.598 14.5 317 14 100150 98
2007-07-03 07:41:16 51°10.51 2°38.569 14.2 34 14 100150 98
2007-07-03 07:41:21 51°10.504 2°38.539 15.4 317 14 100140 98
2007-07-03 07:41:26 51°10.499 2°38.51 13.2 317 14 100140 98
2007-07-03 07:41:31 51°10.494 2°38.48 16.2 282 14 100130 98
2007-07-03 07:41:36 51°10.488 2°38.451 14 317 14 100130 98
2007-07-03 07:41:41 51°10.483 2°38.421 14.3 317 14 100140 98
2007-07-03 07:41:46 51°10.477 2°38.392 15.3 320 14 100140 98
2007-07-03 07:41:51 51°10.471 2°38.363 15.6 320 14 100140 98
2007-07-03 07:41:56 51°10.466 2°38.333 15.2 317 14 100140 98
2007-07-03 07:42:01 51°10.46 2°38.303 16.3 316 14 100150 98
2007-07-03 07:42:06 51°10.455 2°38.274 12.7 34 14 100150 98
2007-07-03 07:42:11 51°10.45 2°38.244 14.4 316 14 100140 98
2007-07-03 07:42:16 51°10.444 2°38.215 13 318 14 100140 98
2007-07-03 07:42:21 51°10.439 2°38.185 15.8 317 14 100140 98
2007-07-03 07:42:26 51°10.433 2°38.155 16 316 14 100140 98
2007-07-03 07:42:31 51°10.428 2°38.126 14.7 317 14.1 100140 98
2007-07-03 07:42:36 51°10.422 2°38.096 14.5 34 14.1 100140 98
2007-07-03 07:42:41 51°10.417 2°38.066 15.9 281 14.1 100150 98
2007-07-03 07:42:46 51°10.411 2°38.037 15.1 317 14.1 100150 98
2007-07-03 07:42:51 51°10.406 2°38.007 14.3 316 14 100140 98
2007-07-03 07:42:56 51°10.4 2°37.978 15.4 317 14 100140 98
2007-07-03 07:43:01 51°10.395 2°37.948 14 282 14.1 100120 98
2007-07-03 07:43:06 51°10.389 2°37.918 14.7 317 14.1 100120 98
2007-07-03 07:43:11 51°10.384 2°37.889 14.9 281 14.1 100140 97
2007-07-03 07:43:16 51°10.379 2°37.859 14.9 316 14.1 100140 97
2007-07-03 07:43:21 51°10.373 2°37.829 14.7 284 14.1 100140 98
2007-07-03 07:43:26 51°10.368 2°37.799 13.7 319 14.1 100140 98
2007-07-03 07:43:31 51°10.362 2°37.77 13.7 319 14.1 100130 98
2007-07-03 07:43:36 51°10.357 2°37.74 14.8 317 14.1 100130 98
2007-07-03 07:43:41 51°10.351 2°37.71 14.4 316 14.1 100130 98
2007-07-03 07:43:46 51°10.346 2°37.68 13.6 32 14.1 100130 98
2007-07-03 07:43:51 51°10.341 2°37.65 16.3 317 14.1 100130 98
2007-07-03 07:43:56 51°10.335 2°37.62 13.7 316 14.1 100130 98
2007-07-03 07:44:01 51°10.329 2°37.591 14.6 316 14.1 100130 97
2007-07-03 07:44:06 51°10.324 2°37.561 15.4 318 14.1 100130 97
2007-07-03 07:44:11 51°10.319 2°37.531 14.5 280 14.1 100130 97
2007-07-03 07:44:16 51°10.313 2°37.501 13.7 319 14.1 100130 97
2007-07-03 07:44:21 51°10.308 2°37.472 13.4 317 14.2 100140 98
2007-07-03 07:44:26 51°10.302 2°37.442 16.6 317 14.2 100140 98
2007-07-03 07:44:31 51°10.297 2°37.412 14.3 316 14.2 100140 98
2007-07-03 07:44:36 51°10.291 2°37.382 15.4 318 14.2 100140 98
2007-07-03 07:44:41 51°10.286 2°37.353 14.7 319 14.2 100130 97
2007-07-03 07:44:46 51°10.28 2°37.323 17.6 319 14.2 100130 97
2007-07-03 07:44:51 51°10.275 2°37.293 15.8 318 14.1 100140 97
2007-07-03 07:44:56 51°10.269 2°37.263 14.2 317 14.1 100140 97
2007-07-03 07:45:01 51°10.264 2°37.234 14.4 281 14.1 100140 97
2007-07-03 07:45:06 51°10.258 2°37.204 14.9 318 14.1 100140 97
2007-07-03 07:45:11 51°10.253 2°37.174 16 317 14.1 100140 97
2007-07-03 07:45:16 51°10.247 2°37.144 14.3 318 14.1 100140 97
2007-07-03 07:45:21 51°10.242 2°37.115 16.8 285 14.1 100130 97
2007-07-03 07:45:26 51°10.236 2°37.085 13.7 316 14.1 100130 97
2007-07-03 07:45:31 51°10.231 2°37.055 15.1 284 14.1 100140 97
2007-07-03 07:45:36 51°10.225 2°37.025 14.9 317 14.1 100140 97
2007-07-03 07:45:41 51°10.22 2°36.996 15 317 14.1 100130 97
2007-07-03 07:45:46 51°10.215 2°36.966 16.7 316 14.1 100130 97
2007-07-03 07:45:51 51°10.209 2°36.936 15.8 315 14.1 100130 97
2007-07-03 07:45:56 51°10.204 2°36.906 16.2 320 14.1 100130 97
2007-07-03 07:46:01 51°10.198 2°36.876 14.5 320 14.1 100130 97
2007-07-03 07:46:06 51°10.192 2°36.846 15.4 319 14.1 100130 97
2007-07-03 07:46:11 51°10.187 2°36.817 15.5 280 14.1 100130 96
2007-07-03 07:46:16 51°10.181 2°36.787 16.8 321 14.1 100130 96
2007-07-03 07:46:21 51°10.176 2°36.757 14.4 319 14.1 100130 96
2007-07-03 07:46:26 51°10.17 2°36.727 15 319 14.1 100130 96
2007-07-03 07:46:31 51°10.165 2°36.697 15 283 14.1 100140 96
2007-07-03 07:46:36 51°10.16 2°36.668 16.7 320 14.1 100140 96
2007-07-03 07:46:41 51°10.154 2°36.638 15 319 14.1 100140 97
2007-07-03 07:46:46 51°10.148 2°36.608 14.4 318 14.1 100140 97
2007-07-03 07:46:51 51°10.143 2°36.578 14 318 14.1 100130 96
2007-07-03 07:46:56 51°10.137 2°36.549 14.6 318 14.1 100130 96
2007-07-03 07:47:01 51°10.132 2°36.519 14.7 320 14.1 100130 96
2007-07-03 07:47:06 51°10.127 2°36.489 13.3 320 14.1 100130 96
2007-07-03 07:47:11 51°10.122 2°36.459 13.2 316 14.1 100130 96
2007-07-03 07:47:16 51°10.118 2°36.428 14 34 14.1 100130 96
2007-07-03 07:47:21 51°10.114 2°36.398 14 277 14.1 100130 96
2007-07-03 07:47:26 51°10.111 2°36.367 14 315 14.1 100130 96
2007-07-03 07:47:31 51°10.109 2°36.336 13.9 315 14.1 100130 96
2007-07-03 07:47:36 51°10.106 2°36.305 14.2 317 14.1 100130 96
2007-07-03 07:47:41 51°10.104 2°36.274 13.2 20 14.1 100130 96
2007-07-03 07:47:46 51°10.102 2°36.244 14.7 33 14.1 100130 96
2007-07-03 07:47:51 51°10.102 2°36.213 14.4 20 14.1 100120 96
2007-07-03 07:47:56 51°10.102 2°36.182 12.8 33 14.1 100120 96
2007-07-03 07:48:01 51°10.103 2°36.151 12.3 23 14.1 100130 96
2007-07-03 07:48:06 51°10.105 2°36.12 12.2 233 14.1 100130 96
2007-07-03 07:48:11 51°10.109 2°36.09 15 27 14.2 100130 96
2007-07-03 07:48:16 51°10.113 2°36.061 12.5 236 14.2 100130 96
2007-07-03 07:48:21 51°10.119 2°36.032 11.6 23 14.1 100120 96
2007-07-03 07:48:26 51°10.126 2°36.004 10.8 236 14.1 100120 96
2007-07-03 07:48:31 51°10.133 2°35.976 10.8 284 14.2 100120 96
2007-07-03 07:48:36 51°10.142 2°35.949 12.4 243 14.2 100120 96
2007-07-03 07:48:41 51°10.15 2°35.922 12.6 285 14.1 100120 96
2007-07-03 07:48:46 51°10.161 2°35.898 9.6 243 14.1 100120 96
2007-07-03 07:48:51 51°10.171 2°35.873 9.3 22 14.2 100120 96
2007-07-03 07:48:56 51°10.182 2°35.85 9.5 247 14.2 100120 96
2007-07-03 07:49:01 51°10.195 2°35.829 10.7 246 14.2 100130 96
2007-07-03 07:49:06 51°10.208 2°35.809 11.7 247 14.2 100130 96
2007-07-03 07:49:11 51°10.221 2°35.791 11.6 250 14.2 100140 96
2007-07-03 07:49:16 51°10.236 2°35.775 9.5 251 14.2 100140 96
2007-07-03 07:49:21 51°10.251 2°35.76 9.7 22 14.2 100140 96
2007-07-03 07:49:26 51°10.266 2°35.746 9.4 254 14.2 100140 96
2007-07-03 07:49:31 51°10.282 2°35.734 8.3 251 14.2 100150 96
2007-07-03 07:49:37 51°10.302 2°35.725 5.5 249 14.2 100150 96
2007-07-03 07:49:41 51°10.315 2°35.718 6.8 279 14.2 100160 96
2007-07-03 07:49:46 51°10.332 2°35.712 9.4 255 14.2 100160 96
2007-07-03 07:49:51 51°10.349 2°35.706 7.8 250 14.2 100160 96
2007-07-03 07:49:56 51°10.367 2°35.703 6.1 260 14.2 100160 96
2007-07-03 07:50:01 51°10.384 2°35.702 4.7 287 14.2 100170 96
2007-07-03 07:50:06 51°10.401 2°35.702 5.1 262 14.2 100170 96
2007-07-03 07:50:11 51°10.418 2°35.705 5.1 279 14.2 100170 96
2007-07-03 07:50:16 51°10.435 2°35.709 4.3 267 14.2 100170 96
2007-07-03 07:50:21 51°10.451 2°35.716 3.5 25 14.2 100160 96
2007-07-03 07:50:26 51°10.467 2°35.723 2.8 33 14.2 100160 96
2007-07-03 07:50:31 51°10.483 2°35.732 3.7 24 14.3 100170 96
2007-07-03 07:50:36 51°10.498 2°35.742 1.6 34 14.3 100170 96
2007-07-03 07:50:41 51°10.513 2°35.753 1.9 23 14.3 100180 96
2007-07-03 07:50:46 51°10.528 2°35.765 1.4 33 14.3 100180 96
2007-07-03 07:50:51 51°10.543 2°35.777 1.3 25 14.3 100180 96
2007-07-03 07:50:56 51°10.557 2°35.79 1.6 33 14.3 100180 96
2007-07-03 07:51:01 51°10.572 2°35.803 1.6 42 14.3 100180 96
2007-07-03 07:51:06 51°10.586 2°35.817 2.1 38 14.3 100180 96
2007-07-03 07:51:11 51°10.601 2°35.831 2.7 77 14.3 100180 96
2007-07-03 07:51:16 51°10.615 2°35.845 2.1 40 14.3 100180 96
2007-07-03 07:51:21 51°10.63 2°35.858 1.9 21 14.3 100180 96
2007-07-03 07:51:26 51°10.644 2°35.872 2.3 39 14.3 100180 96
2007-07-03 07:51:31 51°10.658 2°35.886 2.4 20 14.3 100180 96
2007-07-03 07:51:36 51°10.673 2°35.9 2.2 36 14.3 100180 96
2007-07-03 07:51:41 51°10.687 2°35.914 2.3 25 14.3 100180 96
2007-07-03 07:51:46 51°10.701 2°35.928 1.9 32 14.3 100180 96
2007-07-03 07:51:51 51°10.716 2°35.941 2 22 14.3 100180 95
2007-07-03 07:51:56 51°10.731 2°35.955 1.7 36 14.3 100180 95
2007-07-03 07:52:01 51°10.745 2°35.969 2 81 14.3 100180 95
2007-07-03 07:52:06 51°10.76 2°35.982 1.4 36 14.3 100180 95
2007-07-03 07:52:11 51°10.774 2°35.995 1.3 44 14.3 100170 95
2007-07-03 07:52:16 51°10.789 2°36.008 1.8 41 14.3 100170 95
2007-07-03 07:52:21 51°10.804 2°36.022 1.5 37 14.2 100170 95
2007-07-03 07:52:26 51°10.818 2°36.035 2.1 38 14.2 100170 95
2007-07-03 07:52:31 51°10.833 2°36.049 2.3 75 14.3 100180 95
2007-07-03 07:52:36 51°10.847 2°36.063 2.4 39 14.3 100180 95
2007-07-03 07:52:41 51°10.862 2°36.076 1.1 35 14.3 100170 95
2007-07-03 07:52:46 51°10.876 2°36.091 1.6 32 14.3 100170 95
2007-07-03 07:52:51 51°10.89 2°36.104 1.6 22 14.3 100170 95
2007-07-03 07:52:56 51°10.905 2°36.119 2.1 37 14.3 100170 95
2007-07-03 07:53:01 51°10.919 2°36.131 1.7 26 14.3 100170 95
2007-07-03 07:53:06 51°10.934 2°36.146 2.7 34 14.3 100170 95
2007-07-03 07:53:11 51°10.948 2°36.159 3.3 45 14.3 100170 95
2007-07-03 07:53:16 51°10.963 2°36.172 2.1 33 14.3 100170 95
2007-07-03 07:53:21 51°10.977 2°36.186 2.7 76 14.3 100170 95
2007-07-03 07:53:26 51°10.992 2°36.199 1.9 35 14.3 100170 95
2007-07-03 07:53:31 51°11.006 2°36.213 2.2 29 14.3 100170 95
2007-07-03 07:53:36 51°11.021 2°36.226 2 33 14.3 100170 95
2007-07-03 07:53:41 51°11.035 2°36.24 2 22 14.3 100170 95
2007-07-03 07:53:46 51°11.05 2°36.254 2.4 39 14.3 100170 95
2007-07-03 07:53:51 51°11.064 2°36.268 1.8 42 14.4 100170 95